DLH4YA EDDM-EDDL

Flight info

Callsign DLH4YA
Flight time N/A
Altitude 32000
Route GIVMI6Q GIVMI Y101 INBED DCT REKDI DCT LOHRE Z850 ARPEG/N0355F240 Z850 ADEMI T854 DOMUX DOMUX1A
Aircraft A320/M-SDE2E3FGIJ1LORWXYZ/HB1

Departure

Time 2026-05-01 13:54
Airport Munich Airport (EDDM)

Arrival

Time N/A
Airport Düsseldorf Airport (EDDL)
Time Latitude Longitude Altitude Speed Heading
2026-05-01 13:16 48.35366 11.79766 1486 ft 0 kts 83°
2026-05-01 13:41 48.35366 11.79765 1485 ft 2 kts 83°
2026-05-01 13:41 48.35363 11.79727 1482 ft 4 kts 83°
2026-05-01 13:41 48.35360 11.79687 1476 ft 4 kts 83°
2026-05-01 13:41 48.35357 11.79655 1471 ft 4 kts 71°
2026-05-01 13:42 48.35344 11.79622 1472 ft 4 kts 31°
2026-05-01 13:42 48.35321 11.79613 1479 ft 3 kts 353°
2026-05-01 13:42 48.35305 11.79616 1475 ft 0 kts 353°
2026-05-01 13:45 48.35312 11.79615 1482 ft 3 kts 353°
2026-05-01 13:45 48.35337 11.79610 1478 ft 8 kts 353°
2026-05-01 13:45 48.35404 11.79590 1473 ft 10 kts 333°
2026-05-01 13:45 48.35451 11.79512 1481 ft 10 kts 309°
2026-05-01 13:46 48.35506 11.79443 1479 ft 15 kts 348°
2026-05-01 13:46 48.35638 11.79423 1478 ft 20 kts 354°
2026-05-01 13:46 48.35786 11.79397 1474 ft 21 kts 353°
2026-05-01 13:46 48.35919 11.79358 1480 ft 16 kts 328°
2026-05-01 13:47 48.36018 11.79328 1485 ft 10 kts 353°
2026-05-01 13:47 48.36030 11.79326 1473 ft 0 kts 353°
2026-05-01 13:47 48.36053 11.79322 1478 ft 10 kts 352°
2026-05-01 13:47 48.36084 11.79197 1478 ft 16 kts 262°
2026-05-01 13:48 48.36071 11.79039 1485 ft 15 kts 263°
2026-05-01 13:48 48.36060 11.78894 1480 ft 13 kts 263°
2026-05-01 13:48 48.36048 11.78729 1480 ft 21 kts 263°
2026-05-01 13:48 48.36031 11.78514 1481 ft 20 kts 263°
2026-05-01 13:49 48.36015 11.78304 1485 ft 21 kts 263°
2026-05-01 13:49 48.35999 11.78097 1482 ft 21 kts 263°
2026-05-01 13:49 48.35981 11.77864 1485 ft 23 kts 263°
2026-05-01 13:49 48.35970 11.77711 1485 ft 22 kts 263°
2026-05-01 13:50 48.35963 11.77633 1485 ft 21 kts 263°
2026-05-01 13:50 48.35945 11.77395 1478 ft 26 kts 263°
2026-05-01 13:50 48.35925 11.77127 1481 ft 22 kts 266°
2026-05-01 13:50 48.35996 11.76981 1485 ft 15 kts 339°
2026-05-01 13:51 48.36099 11.76961 1475 ft 16 kts 353°
2026-05-01 13:51 48.36174 11.76948 1482 ft 0 kts 353°
2026-05-01 13:52 48.36177 11.76948 1485 ft 3 kts 353°
2026-05-01 13:53 48.36216 11.76941 1479 ft 5 kts 353°
2026-05-01 13:53 48.36294 11.76974 1485 ft 5 kts 85°
2026-05-01 13:53 48.36294 11.76984 1477 ft 0 kts 85°
2026-05-01 13:54 48.36304 11.77133 1485 ft 49 kts 83°
2026-05-01 13:54 48.36374 11.78011 1485 ft 116 kts 83°
2026-05-01 13:54 48.36488 11.79475 1610 ft 156 kts 83°
2026-05-01 13:54 48.36616 11.81054 2520 ft 149 kts 82°
2026-05-01 13:55 48.36753 11.82654 3141 ft 166 kts 84°
2026-05-01 13:55 48.36894 11.84488 3680 ft 189 kts 82°
2026-05-01 13:55 48.37340 11.86444 4292 ft 218 kts 60°
2026-05-01 13:55 48.38535 11.88134 4792 ft 252 kts 30°
2026-05-01 13:56 48.40288 11.88751 5472 ft 277 kts
2026-05-01 13:56 48.42128 11.87827 6515 ft 287 kts 327°
2026-05-01 13:56 48.43425 11.85505 7424 ft 298 kts 295°
2026-05-01 13:56 48.44263 11.82688 8601 ft 294 kts 294°
2026-05-01 13:57 48.45209 11.79936 9560 ft 297 kts 307°
2026-05-01 13:57 48.46534 11.77531 10541 ft 299 kts 315°
2026-05-01 13:57 48.47958 11.75222 11454 ft 302 kts 316°
2026-05-01 13:57 48.49406 11.72894 12339 ft 306 kts 316°
2026-05-01 13:58 48.50856 11.70513 13218 ft 311 kts 315°
2026-05-01 13:58 48.52307 11.68063 14083 ft 315 kts 314°
2026-05-01 13:58 48.53757 11.65561 14840 ft 319 kts 314°
2026-05-01 13:58 48.55214 11.63004 15592 ft 323 kts 313°
2026-05-01 13:59 48.56679 11.60406 16364 ft 327 kts 313°
2026-05-01 13:59 48.58171 11.57748 16870 ft 341 kts 313°
2026-05-01 13:59 48.59756 11.54941 17108 ft 360 kts 313°
2026-05-01 13:59 48.61399 11.52027 17688 ft 368 kts 313°
2026-05-01 14:00 48.63065 11.49061 18396 ft 372 kts 313°
2026-05-01 14:00 48.64748 11.46056 19051 ft 376 kts 313°
2026-05-01 14:00 48.66444 11.43024 19693 ft 379 kts 313°
2026-05-01 14:00 48.68130 11.40012 20328 ft 382 kts 313°
2026-05-01 14:01 48.69917 11.37034 20969 ft 382 kts 320°
2026-05-01 14:01 48.72001 11.34550 21604 ft 382 kts 329°
2026-05-01 14:01 48.74221 11.32322 22239 ft 384 kts 329°
2026-05-01 14:01 48.76452 11.30079 22846 ft 386 kts 329°
2026-05-01 14:02 48.78699 11.27808 23439 ft 389 kts 329°
2026-05-01 14:02 48.80957 11.25516 24029 ft 392 kts 329°
2026-05-01 14:02 48.83234 11.23225 24512 ft 394 kts 331°
2026-05-01 14:02 48.85679 11.21354 24987 ft 393 kts 341°
2026-05-01 14:03 48.88270 11.20009 25462 ft 395 kts 344°
2026-05-01 14:03 48.90888 11.18697 25947 ft 397 kts 344°
2026-05-01 14:03 48.93522 11.17366 26409 ft 400 kts 343°
2026-05-01 14:03 48.96166 11.16026 26880 ft 402 kts 343°
2026-05-01 14:04 48.98829 11.14672 27329 ft 405 kts 343°
2026-05-01 14:04 49.01509 11.13303 27786 ft 407 kts 343°
2026-05-01 14:04 49.04204 11.11924 28235 ft 410 kts 343°
2026-05-01 14:04 49.05994 11.11009 28528 ft 411 kts 343°
2026-05-01 14:05 49.09644 11.09141 29106 ft 415 kts 343°
2026-05-01 14:05 49.12388 11.07733 29537 ft 417 kts 343°
2026-05-01 14:05 49.15148 11.06320 29962 ft 420 kts 343°
2026-05-01 14:05 49.17926 11.04900 30401 ft 422 kts 343°
2026-05-01 14:06 49.20681 11.03492 30732 ft 425 kts 343°
2026-05-01 14:06 49.23494 11.02051 31080 ft 427 kts 343°
2026-05-01 14:06 49.26316 11.00602 31425 ft 429 kts 343°
2026-05-01 14:06 49.29155 10.99142 31739 ft 431 kts 343°
2026-05-01 14:07 49.32001 10.97674 32073 ft 433 kts 342°
2026-05-01 14:07 49.34851 10.96185 32321 ft 433 kts 340°
2026-05-01 14:07 49.37539 10.94207 32354 ft 422 kts 330°
2026-05-01 14:08 49.41791 10.88440 32360 ft 404 kts 311°
2026-05-01 14:08 49.45315 10.81786 32360 ft 401 kts 311°
2026-05-01 14:09 49.48819 10.75128 32355 ft 400 kts 311°
2026-05-01 14:09 49.52317 10.68472 32347 ft 400 kts 311°
2026-05-01 14:10 49.55810 10.61811 32349 ft 400 kts 310°
2026-05-01 14:10 49.59301 10.55133 32336 ft 400 kts 310°
2026-05-01 14:11 49.62779 10.48455 32334 ft 399 kts 310°
2026-05-01 14:11 49.67834 10.38307 32336 ft 400 kts 306°
2026-05-01 14:12 49.70959 10.31132 32331 ft 400 kts 305°
2026-05-01 14:12 49.74002 10.24007 32334 ft 400 kts 305°
2026-05-01 14:13 49.76600 10.18033 32344 ft 400 kts 306°
2026-05-01 14:13 49.80236 10.09766 32334 ft 399 kts 306°
2026-05-01 14:14 49.83356 10.02655 32331 ft 399 kts 306°
2026-05-01 14:14 49.86460 9.95530 32327 ft 399 kts 305°
2026-05-01 14:15 49.89562 9.88393 32323 ft 399 kts 306°
2026-05-01 14:15 49.92662 9.81259 32330 ft 399 kts 305°
2026-05-01 14:16 49.95755 9.74107 32330 ft 399 kts 305°
2026-05-01 14:16 49.98835 9.66940 32326 ft 399 kts 305°
2026-05-01 14:17 50.01904 9.59820 32320 ft 399 kts 305°
2026-05-01 14:17 50.04990 9.52637 32319 ft 399 kts 305°
2026-05-01 14:18 50.08634 9.46196 32323 ft 396 kts 322°
2026-05-01 14:18 50.12195 9.41727 32320 ft 396 kts 322°
2026-05-01 14:19 50.17198 9.35394 32328 ft 396 kts 321°
2026-05-01 14:19 50.21474 9.29968 32327 ft 396 kts 321°
2026-05-01 14:20 50.27886 9.21816 32323 ft 396 kts 321°
2026-05-01 14:21 50.32152 9.16359 32316 ft 396 kts 321°
2026-05-01 14:21 50.36410 9.10911 32314 ft 396 kts 321°
2026-05-01 14:22 50.42807 9.02739 32316 ft 395 kts 321°
2026-05-01 14:22 50.47036 8.97306 32322 ft 395 kts 321°
2026-05-01 14:23 50.51281 8.91816 32318 ft 395 kts 321°
2026-05-01 14:23 50.55569 8.86396 32314 ft 395 kts 323°
2026-05-01 14:24 50.59954 8.81187 32312 ft 395 kts 324°
2026-05-01 14:24 50.64353 8.76002 32315 ft 395 kts 323°
2026-05-01 14:25 50.68730 8.70770 32310 ft 395 kts 323°
2026-05-01 14:25 50.73090 8.65492 32310 ft 395 kts 323°
2026-05-01 14:26 50.79616 8.57554 32310 ft 395 kts 323°
2026-05-01 14:27 50.83936 8.52301 32306 ft 394 kts 323°
2026-05-01 14:27 50.88288 8.47014 32307 ft 395 kts 323°
2026-05-01 14:28 50.94855 8.39002 32066 ft 400 kts 323°
2026-05-01 14:28 50.97080 8.36275 31096 ft 409 kts 323°
2026-05-01 14:28 50.99327 8.33508 30539 ft 407 kts 323°
2026-05-01 14:29 51.01569 8.30804 30034 ft 402 kts 327°
2026-05-01 14:29 51.03178 8.29270 29723 ft 397 kts 332°
2026-05-01 14:30 51.10216 8.23009 28420 ft 380 kts 332°
2026-05-01 14:30 51.12511 8.20969 27998 ft 375 kts 332°
2026-05-01 14:30 51.14781 8.18951 27549 ft 371 kts 332°
2026-05-01 14:31 51.19246 8.14974 26672 ft 365 kts 332°
2026-05-01 14:31 51.21453 8.13001 26212 ft 363 kts 332°
2026-05-01 14:31 51.23685 8.11004 25284 ft 374 kts 332°
2026-05-01 14:31 51.25987 8.08947 24501 ft 382 kts 332°
2026-05-01 14:32 51.28299 8.06873 23989 ft 381 kts 331°
2026-05-01 14:32 51.30605 8.04798 23430 ft 379 kts 332°
2026-05-01 14:32 51.32888 8.02741 22944 ft 376 kts 331°
2026-05-01 14:32 51.35159 8.00697 22447 ft 373 kts 331°
2026-05-01 14:33 51.37297 7.98396 21973 ft 371 kts 317°
2026-05-01 14:33 51.38908 7.95210 21505 ft 368 kts 298°
2026-05-01 14:33 51.39810 7.91419 21040 ft 364 kts 279°
2026-05-01 14:33 51.39985 7.87401 20584 ft 361 kts 269°
2026-05-01 14:34 51.39990 7.83387 20035 ft 362 kts 268°
2026-05-01 14:34 51.39995 7.79303 19191 ft 372 kts 268°
2026-05-01 14:34 51.40002 7.75159 18342 ft 382 kts 268°
2026-05-01 14:34 51.40010 7.70861 17408 ft 390 kts 268°
2026-05-01 14:35 51.40017 7.66490 16500 ft 397 kts 268°
2026-05-01 14:35 51.40022 7.62038 15628 ft 402 kts 268°
2026-05-01 14:35 51.40025 7.57539 14771 ft 406 kts 268°
2026-05-01 14:35 51.40025 7.52998 13926 ft 409 kts 268°
2026-05-01 14:36 51.40023 7.48438 13011 ft 410 kts 268°
2026-05-01 14:36 51.40022 7.45411 12429 ft 410 kts 268°